Location: Erfurt
(50.9688°N, 11.0193°E)
Time: 03:59:07
(UTC+01:00)

ISS - Pass Details

Date: 11 February 2018
Orbit: 402 x 407 km, 51.6° (Epoch: 23 February)

Event Time Altitude Azimuth Distance (km) Brightness Sun altitude
Rises 19:24:37 0° 278° (W) 2,320 1.7 -19.3°
Reaches altitude 10° 19:28:05 10° 238° (WSW) 1,456 -0.2 -19.8°
Maximum altitude 19:28:55 11° 224° (SW) 1,410 -0.6 -19.9°
Drops below altitude 10° 19:29:45 10° 208° (SSW) 1,454 -0.7 -20.1°
Enters shadow 19:31:38 - 182° (S) 1,823 -0.5 -20.4°
